STARLINK-2022 (47643 NORAD) Tracking and Keplerian Element Data
This shows tracking and keplerian element data for the satellite.
Feedback or suggestion? Click here.
Element | Value |
Catalog | 47643 |
Name | STARLINK-2022 |
Epoch Orbit | 282 |
Epoch Day | 60.16668981 |
Epoch Year | 2021 |
RAAN | 36.836 |
Inclination | 53.0499 |
Eccentricity | 0.000146 |
Argument of Perigee | 102.6367 |
Mean Anonmoly | 15.8618 |
Mean Motion | 15.86599333 |
Decay Rate | 0.00045681 |
L1 | 1 47643U 21012Z 21060.16668981 .00045681 00000-0 17835-3 0 9995 |
L2 | 2 47643 53.0499 36.8360 0001460 102.6367 15.8618 15.86599333 2821 |
Live tracking and technical data element details for STARLINK-2022 (NORAD 47643). STARLINK-2022 can be tracked NOW for your location showing map with azimuth and elevation plus other details from your city location.
Track the satellite on the map from your city or location and see movement details for azimuth, elevation, latitude, longitude, range, height, and movement on the map or in text.
IsCatalogInMostPopularTable: catalog: 47643, numindb: 3
Update: records affected: 1
GetName: 47643 STARLINK-2022
Hit Count: updated at: Mon, 01 Mar 2021 16:58:12 GMT